Flag for Congo Weather past 2 weeks in Brazzaville, Congo

Now
79 °F

Clear.


Feels Like: 81 °F
Forecast: 71 / 85 °F
Wind: 5 mph from West

Location: Brazzaville / Maya-Maya

Current Time: Oct 2, 2014 at 2:15:38 AM

Latest Report: Oct 2, 2014 at 1:00 AM


Visibility: 5 mi

Pressure: 29.92 "Hg

Humidity: 65%

Dew point: 66 °F

Location of BrazzavilleLocation

Historic Weather in Brazzaville — Graph

°F

Brazzaville temperature yesterday

Maximum temperature yesterday: 93 °F (at 3:00 PM)
Minimum temperature yesterday: 73 °F (at 5:00 AM)
Average temperature yesterday: 83 °F

Past Weeks' High & Low Weather Summary

 TemperatureHumidityPressure
High93 °F (Sep 19, 3:00 PM)94% (Sep 17, 4:00 AM)30.07 "Hg (Sep 17, 4:00 AM)
Low68 °F (Sep 17, 4:00 AM)39% (Sep 19, 4:00 PM)29.80 "Hg (Sep 19, 4:00 PM)
Average79 °F70%29.94 "Hg
* Reported Midnight between Sep 16 and Sep 17 — Midnight between Oct 1 and Oct 2, Brazzaville, Weather by CustomWeather, © 2014

Note: Actual official high and low records may vary slightly from our data, if they occured in-between our weather recording intervals... More about our weather records

Advertising

Brazzaville weather history for previous 24 hours

 ConditionsComfort  
Time TempWeatherWind HumidityBarometerVisibility
12:00 AM
Oct 2
81 °FClear.7 mph62%29.92 "Hg5 mi
11:00 PM
Oct 1
81 °FClear.7 mph62%29.92 "Hg5 mi
10:00 PM82 °FClear.7 mph62%29.92 "Hg5 mi
9:00 PM84 °FClear.5 mph58%29.89 "Hg4 mi
8:00 PM84 °FClear.5 mph58%29.89 "Hg4 mi
7:00 PM86 °FHaze.7 mph59%29.86 "Hg2 mi
6:00 PM90 °FClear.9 mph52%29.83 "Hg4 mi
5:00 PM91 °FPassing clouds.9 mph46%29.83 "Hg4 mi
4:00 PM93 °FPassing clouds.7 mph44%29.83 "Hg5 mi
3:00 PM93 °FScattered clouds.9 mph44%29.83 "HgN/A
2:00 PM91 °FPartly sunny.7 mph49%29.83 "HgN/A
1:00 PM90 °FPartly sunny.7 mph52%29.86 "HgN/A
12:00 PM88 °FPartly sunny.9 mph55%29.89 "Hg5 mi
11:00 AM86 °FScattered clouds.7 mph59%29.95 "Hg5 mi
10:00 AM84 °FScattered clouds.7 mph58%29.95 "Hg6 mi
9:00 AM81 °FClear.5 mph62%29.95 "Hg6 mi
8:00 AM79 °FClear.7 mph65%29.98 "Hg6 mi
7:00 AM75 °FClear.2 mph74%29.95 "Hg6 mi
6:00 AM73 °FClear.2 mph78%29.95 "Hg6 mi
5:00 AM73 °FClear.5 mph78%29.92 "Hg5 mi
4:00 AM75 °FClear.5 mph69%29.92 "Hg5 mi
3:00 AM75 °FClear.2 mph74%29.95 "Hg5 mi
2:00 AM75 °FClear.5 mph74%29.95 "Hg5 mi
Weather by CustomWeather, © 2014

See weather overviewHow to use our weather pages